TimeEDT,TemperatureF,Dew PointF,Humidity,Sea Level PressureIn,VisibilityMPH,Wind Direction,Wind SpeedMPH,Gust SpeedMPH,PrecipitationIn,Events,Conditions,WindDirDegrees,DateUTC
12:13 AM,64.4,60.8,88,30.27,10.0,Calm,Calm,-,N/A,,Clear,0,2013-06-21 04:13:00
12:33 AM,66.2,60.8,83,30.27,10.0,NNW,4.6,-,N/A,,Clear,330,2013-06-21 04:33:00
12:53 AM,66.2,60.8,83,30.28,10.0,Calm,Calm,-,N/A,,Clear,0,2013-06-21 04:53:00
1:13 AM,64.4,60.8,88,30.28,10.0,Calm,Calm,-,N/A,,Clear,0,2013-06-21 05:13:00
1:34 AM,64.4,60.8,88,30.28,10.0,Calm,Calm,-,N/A,,Clear,0,2013-06-21 05:34:00
1:54 AM,64.4,60.8,88,30.28,10.0,Calm,Calm,-,N/A,,Clear,0,2013-06-21 05:54:00
2:14 AM,62.6,60.8,94,30.28,10.0,Calm,Calm,-,N/A,,Clear,0,2013-06-21 06:14:00
2:34 AM,62.6,59.0,88,30.28,5.0,Calm,Calm,-,N/A,,Clear,0,2013-06-21 06:34:00
2:54 AM,62.6,60.8,94,30.28,5.0,Calm,Calm,-,N/A,,Clear,0,2013-06-21 06:54:00
3:14 AM,62.6,60.8,94,30.28,10.0,Calm,Calm,-,N/A,,Clear,0,2013-06-21 07:14:00
3:34 AM,62.6,60.8,94,30.28,7.0,North,4.6,-,N/A,,Clear,350,2013-06-21 07:34:00
3:54 AM,62.6,60.8,94,30.28,10.0,North,3.5,-,N/A,,Clear,360,2013-06-21 07:54:00
4:14 AM,62.6,60.8,94,30.29,10.0,North,4.6,-,N/A,,Mostly Cloudy,360,2013-06-21 08:14:00
4:34 AM,62.6,60.8,94,30.29,10.0,Calm,Calm,-,N/A,,Overcast,0,2013-06-21 08:34:00
4:54 AM,62.6,60.8,94,30.29,10.0,NNW,3.5,-,N/A,,Overcast,340,2013-06-21 08:54:00
5:14 AM,62.6,59.0,88,30.30,10.0,Calm,Calm,-,N/A,,Mostly Cloudy,0,2013-06-21 09:14:00
5:34 AM,60.8,59.0,94,30.30,10.0,Calm,Calm,-,N/A,,Scattered Clouds,0,2013-06-21 09:34:00
5:54 AM,60.8,59.0,94,30.30,5.0,Calm,Calm,-,N/A,,Clear,0,2013-06-21 09:54:00
6:14 AM,59.0,59.0,100,30.30,4.0,Calm,Calm,-,N/A,,Clear,0,2013-06-21 10:14:00
6:34 AM,60.8,59.0,94,30.31,5.0,Calm,Calm,-,N/A,,Clear,0,2013-06-21 10:34:00
6:54 AM,60.8,60.8,100,30.32,5.0,Calm,Calm,-,N/A,,Clear,0,2013-06-21 10:54:00
7:14 AM,60.8,59.0,94,30.32,4.0,Calm,Calm,-,N/A,,Clear,0,2013-06-21 11:14:00
7:34 AM,62.6,60.8,94,30.32,7.0,Calm,Calm,-,N/A,,Clear,0,2013-06-21 11:34:00
7:54 AM,62.6,60.8,94,30.32,7.0,Calm,Calm,-,N/A,,Clear,0,2013-06-21 11:54:00
8:14 AM,64.4,60.8,88,30.32,10.0,Calm,Calm,-,N/A,,Clear,0,2013-06-21 12:14:00
8:34 AM,66.2,60.8,83,30.32,10.0,Calm,Calm,-,N/A,,Clear,0,2013-06-21 12:34:00
8:54 AM,68.0,60.8,78,30.32,10.0,Calm,Calm,-,N/A,,Clear,0,2013-06-21 12:54:00
9:14 AM,69.8,62.6,78,30.32,10.0,Calm,Calm,-,N/A,,Clear,0,2013-06-21 13:14:00
9:34 AM,69.8,60.8,73,30.32,10.0,Calm,Calm,-,N/A,,Clear,0,2013-06-21 13:34:00
9:55 AM,71.6,62.6,73,30.31,10.0,Calm,Calm,-,N/A,,Clear,0,2013-06-21 13:55:00
10:15 AM,73.4,62.6,69,30.31,10.0,Calm,Calm,-,N/A,,Clear,0,2013-06-21 14:15:00
10:35 AM,73.4,62.6,69,30.31,10.0,Calm,Calm,-,N/A,,Clear,0,2013-06-21 14:35:00
10:55 AM,73.4,62.6,69,30.31,10.0,South,4.6,-,N/A,,Clear,190,2013-06-21 14:55:00
11:15 AM,75.2,62.6,65,30.31,10.0,South,3.5,-,N/A,,Clear,170,2013-06-21 15:15:00
11:35 AM,77.0,62.6,61,30.31,10.0,SSW,4.6,-,N/A,,Clear,200,2013-06-21 15:35:00
11:55 AM,77.0,64.4,65,30.31,10.0,ESE,3.5,-,N/A,,Clear,120,2013-06-21 15:55:00
12:15 PM,78.8,62.6,57,30.31,10.0,Calm,Calm,-,N/A,,Clear,0,2013-06-21 16:15:00
12:35 PM,80.6,62.6,54,30.31,10.0,Calm,Calm,-,N/A,,Clear,0,2013-06-21 16:35:00
12:55 PM,80.6,62.6,54,30.29,10.0,South,4.6,-,N/A,,Clear,170,2013-06-21 16:55:00
1:15 PM,82.4,62.6,51,30.29,10.0,SE,6.9,-,N/A,,Clear,140,2013-06-21 17:15:00
1:35 PM,82.4,60.8,48,30.29,10.0,ESE,4.6,-,N/A,,Clear,110,2013-06-21 17:35:00
1:55 PM,82.4,59.0,45,30.30,10.0,Calm,Calm,-,N/A,,Clear,0,2013-06-21 17:55:00
2:15 PM,84.2,59.0,42,30.29,10.0,SSW,3.5,-,N/A,,Clear,210,2013-06-21 18:15:00
2:35 PM,84.2,59.0,42,30.28,10.0,SSE,6.9,-,N/A,,Clear,160,2013-06-21 18:35:00
2:55 PM,84.2,59.0,42,30.27,10.0,East,6.9,-,N/A,,Scattered Clouds,100,2013-06-21 18:55:00
3:15 PM,84.2,59.0,42,30.27,10.0,ESE,5.8,-,N/A,,Scattered Clouds,120,2013-06-21 19:15:00
3:35 PM,86.0,59.0,40,30.27,10.0,ESE,5.8,-,N/A,,Clear,120,2013-06-21 19:35:00
3:55 PM,84.2,57.2,40,30.26,10.0,ESE,4.6,-,N/A,,Clear,110,2013-06-21 19:55:00
4:15 PM,86.0,59.0,40,30.26,10.0,SE,6.9,-,N/A,,Scattered Clouds,130,2013-06-21 20:15:00
4:35 PM,86.0,60.8,43,30.26,10.0,ESE,9.2,-,N/A,,Scattered Clouds,120,2013-06-21 20:35:00
4:55 PM,82.4,60.8,48,30.25,10.0,SE,8.1,-,N/A,,Scattered Clouds,140,2013-06-21 20:55:00
5:15 PM,84.2,60.8,45,30.25,10.0,SE,9.2,-,N/A,,Scattered Clouds,130,2013-06-21 21:15:00
5:35 PM,82.4,60.8,48,30.25,10.0,SE,9.2,-,N/A,,Scattered Clouds,140,2013-06-21 21:35:00
5:55 PM,82.4,60.8,48,30.25,10.0,ESE,9.2,-,N/A,,Clear,120,2013-06-21 21:55:00
6:15 PM,82.4,60.8,48,30.25,10.0,ESE,5.8,-,N/A,,Clear,120,2013-06-21 22:15:00
6:35 PM,82.4,59.0,45,30.24,10.0,SE,8.1,-,N/A,,Clear,140,2013-06-21 22:35:00
6:56 PM,80.6,60.8,51,30.25,10.0,SE,8.1,-,N/A,,Clear,130,2013-06-21 22:56:00
7:16 PM,80.6,60.8,51,30.25,10.0,SE,5.8,-,N/A,,Clear,130,2013-06-21 23:16:00
7:36 PM,80.6,60.8,51,30.25,10.0,ESE,3.5,-,N/A,,Clear,110,2013-06-21 23:36:00
7:56 PM,78.8,60.8,54,30.25,10.0,SSE,3.5,-,N/A,,Clear,160,2013-06-21 23:56:00
8:16 PM,78.8,60.8,54,30.25,10.0,SSE,3.5,-,N/A,,Clear,150,2013-06-22 00:16:00
8:36 PM,77.0,60.8,57,30.25,10.0,Calm,Calm,-,N/A,,Clear,0,2013-06-22 00:36:00
8:56 PM,75.2,60.8,61,30.25,10.0,South,3.5,-,N/A,,Clear,190,2013-06-22 00:56:00
9:16 PM,73.4,60.8,65,30.25,10.0,SSW,5.8,-,N/A,,Clear,200,2013-06-22 01:16:00
9:36 PM,73.4,60.8,65,30.26,10.0,SSW,3.5,-,N/A,,Clear,200,2013-06-22 01:36:00
9:56 PM,71.6,60.8,69,30.26,10.0,SSW,4.6,-,N/A,,Clear,200,2013-06-22 01:56:00
10:16 PM,71.6,60.8,69,30.26,10.0,SSW,4.6,-,N/A,,Clear,200,2013-06-22 02:16:00
10:36 PM,71.6,60.8,69,30.27,10.0,Calm,Calm,-,N/A,,Clear,0,2013-06-22 02:36:00
10:56 PM,71.6,59.0,64,30.27,10.0,Calm,Calm,-,N/A,,Clear,0,2013-06-22 02:56:00
11:16 PM,71.6,60.8,69,30.27,10.0,Calm,Calm,-,N/A,,Clear,0,2013-06-22 03:16:00
11:36 PM,69.8,60.8,73,30.27,10.0,NW,3.5,-,N/A,,Clear,310,2013-06-22 03:36:00
11:56 PM,69.8,60.8,73,30.28,10.0,NNW,5.8,-,N/A,,Clear,340,2013-06-22 03:56:00